Tracking 28799 objects as of 18-Apr-2024
HD Live streaming from Space Station
objects crossing your sky now

SL-16 DEB

Track SL-16 DEB now!
10-day predictions


NORAD ID: 22336
Int'l Code: 1992-093Z
Perigee: 835.7 km
Apogee: 1,005.7 km
Inclination: 71.1 °
Period: 103.3 minutes
Semi major axis: 7291 km
RCS: 0.2247 m2 (medium)
Launch date: December 25, 1992
Source: Commonwealth of Independent States (former USSR) (CIS)
Launch site: TYURATAM MISSILE AND SPACE COMPLEX (TTMTR)

Note: This is SATELLITE DEBRIS
Your satellite tracking list
Your tracking list is empty




NASA's NSSDC Master Catalog

Two Line Element Set (TLE):
1 22336U 92093Z   24109.16063727  .00001492  00000-0  10912-2 0  9998
2 22336  71.1358  14.3693 0116562 113.1233 248.2214 13.94299658587643
Source of the keplerian elements: AFSPC